Simultaneous Nadir Overpasses (SNOs) Predictions

Prediction of SNOs between GOES-16 and METOP-C Satellite Orbit:

Table of predicted SNOs for the next 14.0 days since TLE Epoch: 2/13/2022
Index Date Time (GOES-16) GOES-16 Lat,Lon METOP-C Lat,Lon Distance(km) Time Diff (sec)
1 02/15/2022 02:31:00 -0.02, -75.19 -0.00, -75.22 3.84 80
2 02/17/2022 14:29:11 0.03, -75.23 -0.06, -74.77 51.78 80
3 02/19/2022 02:50:51 -0.04, -75.22 -0.98, -79.36 472.69 80
4 02/20/2022 02:27:32 -0.04, -75.23 0.14, -74.37 97.58 80
5 02/21/2022 14:49:03 0.04, -75.27 0.86, -78.93 417.41 80
6 02/22/2022 14:25:43 0.03, -75.28 -0.26, -73.94 153.05 80
7 02/24/2022 02:47:24 -0.03, -75.28 -0.76, -78.53 370.86 80
8 02/25/2022 02:24:04 -0.03, -75.29 0.37, -73.54 199.53 80
9 02/26/2022 14:42:56 0.03, -75.33 0.64, -78.10 315.50 80
